Weather History for Glenwood, MN

Change the Weather History Date:

Saturday, September 1, 2012

  Actual Average Record
Temperature  
Mean Temperature 70 °F -  
Max Temperature 84 °F 76 °F 92 °F (1953)
Min Temperature 55 °F 53 °F 35 °F (1949)
Cooling Degree Days 4    
Growing Degree Days 20 (Base 50)    
Moisture  
Dew Point 49 °F    
Average Humidity 54    
Maximum Humidity 77    
Minimum Humidity 28    
Precipitation  
Precipitation 0.00 in - - ()
Sea Level Pressure  
Sea Level Pressure 30.09 in    
Wind  
Wind Speed 9 mph (East)    
Max Wind Speed 17 mph    
Max Gust Speed 23 mph    
Visibility 10 miles    
Events      
Averages and records for this station are not official NWS values.
T = Trace of Precipitation, MM = Missing Value Source: NWS Daily Summary

Daily Weather History Graph

Daily Weather History Graph

Search for Another Location

Airport:

Trip Planner

Search our weather history database for the weather conditions in past years. The results will help you decide how hot, cold, wet, or windy it might be!

Date:

Astronomy

Sep. 01, 2012 Rise Set
Actual Time 6:43 AM CDT 7:58 PM CDT
Civil Twilight 6:12 AM CDT 8:28 PM CDT
Nautical Twilight 5:35 AM CDT 9:05 PM CDT
Astronomical Twilight 4:56 AM CDT 9:44 PM CDT
Moon 8:06 PM CDT (9/1) 7:58 AM CDT (9/1)
Length of Visible Light 14h 16m
Length of Day
13h 15m
Full, 99% of the Moon is Illuminated
Sep 1
Full
Sep 8
Last Quarter
Sep 15
New
Sep 22
First Quarter
Sep 29
Full

Hourly Weather History & Observations

Time (CDT) Temp. Dew Point Humidity Pressure Visibility Wind Dir Wind Speed Gust Speed Precip Events Conditions
12:13 AM 60.8 °F 48.2 °F 63% 30.13 in 10.0 mi ENE 8.1 mph - N/A   Clear
12:33 AM 60.8 °F 48.2 °F 63% 30.13 in 10.0 mi ENE 8.1 mph - N/A   Clear
12:53 AM 60.8 °F 48.2 °F 63% 30.13 in 10.0 mi East 8.1 mph - N/A   Clear
1:13 AM 60.8 °F 50.0 °F 68% 30.14 in 10.0 mi ENE 6.9 mph - N/A   Clear
1:33 AM 60.8 °F 48.2 °F 63% 30.14 in 10.0 mi ENE 6.9 mph - N/A   Clear
1:53 AM 59.0 °F 50.0 °F 72% 30.14 in 10.0 mi ENE 6.9 mph - N/A   Clear
2:13 AM 60.8 °F 48.2 °F 63% 30.14 in 10.0 mi ENE 6.9 mph - N/A   Clear
2:34 AM 59.0 °F 48.2 °F 67% 30.14 in 10.0 mi ENE 6.9 mph - N/A   Clear
2:53 AM 59.0 °F 48.2 °F 67% 30.15 in 10.0 mi ENE 6.9 mph - N/A   Clear
3:13 AM 57.2 °F 48.2 °F 72% 30.14 in 10.0 mi East 8.1 mph - N/A   Clear
3:34 AM 57.2 °F 48.2 °F 72% 30.14 in 10.0 mi ENE 8.1 mph - N/A   Clear
3:53 AM 57.2 °F 48.2 °F 72% 30.14 in 10.0 mi ENE 5.8 mph - N/A   Clear
4:13 AM 55.4 °F 48.2 °F 77% 30.14 in 10.0 mi ENE 5.8 mph - N/A   Clear
4:33 AM 57.2 °F 48.2 °F 72% 30.14 in 10.0 mi ENE 8.1 mph - N/A   Clear
4:53 AM 57.2 °F 48.2 °F 72% 30.13 in 10.0 mi ENE 8.1 mph - N/A   Clear
5:13 AM 57.2 °F 48.2 °F 72% 30.13 in 10.0 mi East 6.9 mph - N/A   Clear
5:33 AM 59.0 °F 48.2 °F 67% 30.13 in 10.0 mi East 8.1 mph - N/A   Clear
5:53 AM 57.2 °F 48.2 °F 72% 30.14 in 10.0 mi ENE 5.8 mph - N/A   Clear
6:13 AM 57.2 °F 48.2 °F 72% 30.14 in 10.0 mi NE 6.9 mph - N/A   Clear
6:33 AM 57.2 °F 48.2 °F 72% 30.15 in 10.0 mi NE 6.9 mph - N/A   Clear
7:13 AM 57.2 °F 46.4 °F 67% 30.15 in 10.0 mi ENE 6.9 mph - N/A   Clear
7:33 AM 57.2 °F 48.2 °F 72% 30.15 in 10.0 mi ENE 6.9 mph - N/A   Clear
7:53 AM 60.8 °F 46.4 °F 59% 30.15 in 10.0 mi ENE 6.9 mph - N/A   Clear
8:13 AM 60.8 °F 48.2 °F 63% 30.14 in 10.0 mi East 8.1 mph - N/A   Clear
8:33 AM 62.6 °F 48.2 °F 59% 30.14 in 10.0 mi East 8.1 mph - N/A   Clear
8:53 AM 64.4 °F 46.4 °F 52% 30.14 in 10.0 mi East 10.4 mph - N/A   Clear
9:13 AM 66.2 °F 46.4 °F 49% 30.14 in 10.0 mi East 10.4 mph - N/A   Clear
9:33 AM 68.0 °F 48.2 °F 49% 30.14 in 10.0 mi East 10.4 mph - N/A   Clear
9:53 AM 69.8 °F 50.0 °F 49% 30.14 in 10.0 mi ESE 12.7 mph - N/A   Clear
10:13 AM 71.6 °F 51.8 °F 50% 30.14 in 10.0 mi East 10.4 mph - N/A   Clear
10:33 AM 71.6 °F 51.8 °F 50% 30.13 in 10.0 mi ESE 10.4 mph - N/A   Clear
10:53 AM 73.4 °F 53.6 °F 50% 30.13 in 10.0 mi ESE 10.4 mph - N/A   Clear
11:14 AM 75.2 °F 53.6 °F 47% 30.13 in 10.0 mi ESE 11.5 mph - N/A   Clear
11:53 AM 78.8 °F 51.8 °F 39% 30.12 in 10.0 mi ESE 16.1 mph 19.6 mph N/A   Clear
12:14 PM 80.6 °F 51.8 °F 37% 30.11 in 10.0 mi ESE 11.5 mph 20.7 mph N/A   Clear
12:33 PM 80.6 °F 51.8 °F 37% 30.11 in 10.0 mi ESE 16.1 mph - N/A   Clear
12:53 PM 80.6 °F 48.2 °F 32% 30.11 in 10.0 mi ESE 12.7 mph 18.4 mph N/A   Clear
1:13 PM 80.6 °F 50.0 °F 34% 30.11 in 10.0 mi SE 13.8 mph 19.6 mph N/A   Clear
1:33 PM 82.4 °F 50.0 °F 32% 30.10 in 10.0 mi SE 11.5 mph 19.6 mph N/A   Clear
1:53 PM 82.4 °F 50.0 °F 32% 30.10 in 10.0 mi ESE 12.7 mph - N/A   Clear
2:13 PM 82.4 °F 48.2 °F 30% 30.09 in 10.0 mi SE 17.3 mph - N/A   Clear
2:33 PM 84.2 °F 48.2 °F 29% 30.08 in 10.0 mi ESE 15.0 mph 18.4 mph N/A   Clear
2:53 PM 82.4 °F 48.2 °F 30% 30.08 in 10.0 mi ESE 15.0 mph - N/A   Clear
3:13 PM 82.4 °F 48.2 °F 30% 30.07 in 10.0 mi ESE 16.1 mph 20.7 mph N/A   Clear
3:33 PM 84.2 °F 48.2 °F 29% 30.07 in 10.0 mi ESE 16.1 mph - N/A   Clear
3:53 PM 82.4 °F 46.4 °F 28% 30.06 in 10.0 mi ESE 17.3 mph 21.9 mph N/A   Clear
4:13 PM 82.4 °F 46.4 °F 28% 30.05 in 10.0 mi ESE 16.1 mph 23.0 mph N/A   Clear
4:33 PM 82.4 °F 46.4 °F 28% 30.04 in 10.0 mi SE 15.0 mph 19.6 mph N/A   Clear
4:53 PM 82.4 °F 48.2 °F 30% 30.05 in 10.0 mi ESE 15.0 mph 23.0 mph N/A   Clear
5:13 PM 82.4 °F 46.4 °F 28% 30.04 in 10.0 mi ESE 16.1 mph 19.6 mph N/A   Clear
5:33 PM 80.6 °F 48.2 °F 32% 30.04 in 10.0 mi ESE 12.7 mph 20.7 mph N/A   Clear
5:54 PM 80.6 °F 48.2 °F 32% 30.03 in 10.0 mi ESE 15.0 mph 19.6 mph N/A   Clear
6:13 PM 78.8 °F 50.0 °F 36% 30.03 in 10.0 mi ESE 11.5 mph 18.4 mph N/A   Clear
6:33 PM 78.8 °F 50.0 °F 36% 30.03 in 10.0 mi ESE 11.5 mph - N/A   Clear
6:54 PM 77.0 °F 50.0 °F 39% 30.03 in 10.0 mi SE 9.2 mph - N/A   Clear
7:13 PM 75.2 °F 51.8 °F 44% 30.03 in 10.0 mi ESE 8.1 mph - N/A   Clear
7:33 PM 73.4 °F 51.8 °F 47% 30.02 in 10.0 mi ESE 9.2 mph - N/A   Clear
7:54 PM 71.6 °F 51.8 °F 50% 30.02 in 10.0 mi ESE 8.1 mph - N/A   Clear
8:13 PM 68.0 °F 51.8 °F 56% 30.02 in 10.0 mi ESE 8.1 mph - N/A   Clear
8:33 PM 66.2 °F 51.8 °F 60% 30.02 in 10.0 mi ESE 5.8 mph - N/A   Clear
8:54 PM 64.4 °F 51.8 °F 64% 30.02 in 10.0 mi East 8.1 mph - N/A   Clear
9:13 PM 64.4 °F 51.8 °F 64% 30.02 in 10.0 mi ESE 8.1 mph - N/A   Clear
9:33 PM 62.6 °F 51.8 °F 68% 30.02 in 10.0 mi ESE 6.9 mph - N/A   Clear
9:54 PM 62.6 °F 51.8 °F 68% 30.02 in 10.0 mi ESE 6.9 mph - N/A   Clear
10:13 PM 62.6 °F 51.8 °F 68% 30.02 in 10.0 mi ESE 6.9 mph - N/A   Clear
10:33 PM 60.8 °F 51.8 °F 72% 30.01 in 10.0 mi ESE 5.8 mph - N/A   Clear
10:53 PM 60.8 °F 51.8 °F 72% 30.01 in 10.0 mi ESE 5.8 mph - N/A   Clear
11:13 PM 62.6 °F 51.8 °F 68% 30.01 in 10.0 mi ESE 8.1 mph - N/A   Clear
11:33 PM 62.6 °F 51.8 °F 68% 30.01 in 10.0 mi ESE 6.9 mph - N/A   Clear
11:53 PM 60.8 °F 51.8 °F 72% 30.01 in 10.0 mi ESE 5.8 mph - N/A   Clear